{"data":{"norad_id":64295,"epoch":"2026-09-20T21:59:11.877216Z","epoch_age_seconds":101694,"freshness":"FRESH","line1":"1 64295U 25123E   26263.91610969  .00008439  00000+0  29764-3 0  9993","line2":"2 64295  70.0003  59.7400 0003294 266.2982  93.7816 15.29585428 72143","mean_motion":15.29585428,"eccentricity":0.0003294,"inclination_deg":70.0003,"raan_deg":59.74,"arg_perigee_deg":266.2982,"mean_anomaly_deg":93.7816,"bstar":0.00029764,"rev_number":7214,"period_min":94.143156285351,"perigee_km":474.79258618727,"apogee_km":479.30878383415,"semimajor_km":6855.1876850107,"source":"CELESTRAK","updated_at":"2026-09-21T09:00:35.305464Z"}}